Regional Weather Roundup
Issued by NWS Midland/Odessa, TX

Skip options and go directly to product.
Home | Oldest Version | Previous Version | Current Version | All | Text Only | Save Text | Print | Product List | Glossary On

Skip product version selection by date and time.   
397
ASUS44 KMAF 250210
RWRMAF
MIDLAND AREA WEATHER ROUNDUP
NATIONAL WEATHER SERVICE MIDLAND TX
900 PM CDT SUN JUL 24 2016

...IN SOUTHWEST TEXAS AND SOUTHEAST NEW MEXICO...

CITY           SKY/WX    TMP DP  RH WIND       PRES   REMARKS
ALPINE         CLEAR     87  54  31 SE13      30.08R
ANDREWS        FAIR      92  54  27 SE8       29.97R
ARTESIA        CLEAR     97  52  21 E9        29.95R
BIG SPRING     CLEAR     93  58  31 E8        29.96R
CARLSBAD       PTCLDY    95  50  21 E12       29.92R
DRYDEN           N/A     94  58  29 E15       29.88R
FORT STOCKTON  CLEAR     93  55  27 SE12      29.93R
GUAD PASS      CLEAR     87  44  22 E21       30.11R
HOBBS          CLEAR     91  50  24 E9        30.01R
MARFA          CLOUDY    87  56  34 E15       30.05R
MIDLAND AIRPK  PTCLDY    96  54  24 SE9       29.95R
MIDLAND INTL   CLEAR     95  54  25 SE12      29.94R
ODESSA         CLEAR     95  53  24 SE13      29.95R
PECOS          CLEAR     97  55  24 E17       29.87R
PRESIDIO       FAIR     101  50  18 NE15      29.83R
SEMINOLE       CLEAR     90  52  27 E6        29.99R
SNYDER           N/A     92  60  34 SE7       29.95R
WINK           CLEAR     96  54  24 E12       29.90R
$$
...OTHER STATIONS IN TEXAS...

CITY           SKY/WX    TMP DP  RH WIND       PRES   REMARKS
ABILENE        CLEAR     92  63  38 E12       29.93R
AMARILLO       CLEAR     88  58  36 SE15      30.04R
AUSTIN         MOCLDY    92  69  47 S6        29.88R
BROWNSVILLE    CLEAR     85  77  77 SE14      29.90R
CORPUS CHRISTI MOCLDY    85  76  74 SE13      29.89R
DALLAS FTW     PTCLDY    92  69  47 SE9       29.89R
DEL RIO        CLEAR     98  62  30 E13       29.81R
EL PASO        TSTM      99  44  15 N17G26    29.90R
HOUSTON INT    CLOUDY    89  73  59 S8        29.91R
LUBBOCK        PTCLDY    90  55  30 S8        30.00R
SAN ANGELO     CLEAR     93  59  31 E8        29.90R
SAN ANTONIO    PTCLDY    93  68  43 SE13      29.89R
WACO           CLEAR     91  67  44 SE7       29.89R
WICHITA FALLS  NOT AVBL
$$
...OTHER LOCATIONS IN NEW MEXICO...

CITY           SKY/WX    TMP DP  RH WIND       PRES   REMARKS
ALAMAGORDO     CLEAR     90  50  25 N8        29.96R
ALBUQUERQUE    CLOUDY    78  54  43 N23       30.18S
CANNON AFB     CLEAR     86  51  30 SE8       30.08R
CLOVIS         CLEAR     86  50  28 SE8       30.08R
HOLLOMAN AFB   MOCLDY    96  46  18 NE10      29.94R
ROSWELL        CLEAR     94  46  19 SE7       29.97R
RUIDOSO          N/A     81  39  22 E9G16     30.28R
SANTA FE       CLOUDY    75  48  38 W16G22    30.29R
TRUTH OR CONSE MOCLDY    87  45  23 N8        30.05R
TUCUMCARI      CLOUDY    79  58  48 N23G29    30.11R
$$

USA.gov is the U.S. government's official web portal to all federal, state and local government web resources and services.